This is the latest recevied weather packets stored in our database for station/object DL9GRB-13. If no packets are shown the sender has not sent any weather packets the latest 1 day(s).
| Time | Temp. | Humidity | Pressure | Rain* | Wind** | Luminosity | Snow |
|---|---|---|---|---|---|---|---|
| 1778014688 | 8.33° C | 84% | 1009.4 hPa | 0 mm | 2.68 m/s, 88° | 0 W/m² | - |
| 1778014508 | 8.33° C | 84% | 1009.3 hPa | 0 mm | 2.24 m/s, 89° | 0 W/m² | - |
| 1778014328 | 8.33° C | 84% | 1009.5 hPa | 0 mm | 3.13 m/s, 89° | 0 W/m² | - |
| 1778014148 | 8.33° C | 84% | 1009.4 hPa | 0 mm | 2.68 m/s, 76° | 0 W/m² | - |
| 1778013968 | 8.33° C | 83% | 1009.3 hPa | 0 mm | 4.02 m/s, 88° | 0 W/m² | - |
| 1778013788 | 8.33° C | 83% | 1009.4 hPa | 0 mm | 0 m/s | 0 W/m² | - |
| 1778013608 | 8.33° C | 83% | 1009.3 hPa | 0 mm | 0 m/s | 0 W/m² | - |
| 1778013428 | 8.33° C | 83% | 1009.3 hPa | 0 mm | 0 m/s | 0 W/m² | - |
| 1778013248 | 8.89° C | 83% | 1009.3 hPa | 0 mm | 2.24 m/s, 75° | 0 W/m² | - |
| 1778013068 | 8.89° C | 83% | 1009.2 hPa | 0 mm | 2.24 m/s, 57° | 0 W/m² | - |
| 1778012888 | 8.89° C | 84% | 1009.2 hPa | 0 mm | 2.68 m/s, 13° | 0 W/m² | - |
| 1778012708 | 8.89° C | 84% | 1009.3 hPa | 0 mm | 3.58 m/s, 86° | 0 W/m² | - |
| 1778012528 | 8.89° C | 84% | 1009.2 hPa | 0 mm | 4.92 m/s, 101° | 0 W/m² | - |
| 1778012348 | 8.89° C | 84% | 1009 hPa | 0 mm | 4.02 m/s, 111° | 0 W/m² | - |
| 1778012168 | 8.89° C | 84% | 1009.4 hPa | 0 mm | 2.68 m/s, 75° | 0 W/m² | - |
| 1778011988 | 8.89° C | 84% | 1009.2 hPa | 0 mm | 4.92 m/s, 104° | 0 W/m² | - |
| 1778011808 | 8.89° C | 84% | 1009.1 hPa | 0 mm | 0 m/s | 0 W/m² | - |
| 1778011628 | 8.89° C | 84% | 1009.2 hPa | 0 mm | 2.24 m/s, 72° | 0 W/m² | - |
| 1778011448 | 8.89° C | 84% | 1009.1 hPa | 0 mm | 2.24 m/s, 58° | 0 W/m² | - |
| 1778011268 | 8.89° C | 84% | 1009.2 hPa | 0 mm | 0 m/s | 0 W/m² | - |
| 1778011088 | 8.89° C | 84% | 1009.1 hPa | 0 mm | 1.79 m/s, 20° | 0 W/m² | - |
| 1778010908 | 8.89° C | 84% | 1009 hPa | 0 mm | 0 m/s | 0 W/m² | - |
| 1778010728 | 8.89° C | 84% | 1009.3 hPa | 0 mm | 0 m/s | 0 W/m² | - |
| 1778010548 | 9.44° C | 84% | 1009.2 hPa | 0 mm | 2.68 m/s, 70° | 0 W/m² | - |
| 1778010368 | 9.44° C | 84% | 1009.2 hPa | 0 mm | 4.47 m/s, 12° | 0 W/m² | - |
* Rain latest hour (hover to see other rain measurements)
** Current wind speed in m/s (hover to see current wind gust speed)